軌道要素
Epoch 2022 Sept. 18.0 TT = JDT 2459840.5
T 2022 Sept. 16.24797 TT Rudenko
q 2.9558483 (2000.0) P Q
z -0.0000333 Peri. 347.84111 +0.05930165 -0.41758589
+/-0.0000022 Node 268.28190 -0.82293724 -0.53457056
e 1.0000985 Incl. 114.89128 -0.56502886 +0.73474917
From 172 observations 2019 Dec. 3-2021 Aug. 14, mean residual 0".4.
|